EW5058 Weather Reports


Display with metric or nautical units.
time (UTC)temp
F
wind
direction
speed
MPH
gust
MPH
rain 1hr
in
rain 24hr
in
rain mn
in
humidity
%
barometer
mb
20260506205819 69 158 3.0 6.0 0.00 0.04 0.04 81 1007.9
20260506204819 69 180 4.0 6.0 0.00 0.04 0.04 81 1008.0
20260506203839 69 158 6.0 14.0 0.00 0.04 0.04 82 1008.1
20260506202819 69 203 4.0 10.0 0.00 0.04 0.04 82 1008.1
20260506201818 69 158 7.0 14.0 0.00 0.04 0.04 82 1008.1
20260506200819 69 180 5.0 9.0 0.00 0.04 0.04 81 1008.3
20260506195819 69 180 8.0 17.0 0.00 0.04 0.04 80 1008.3
20260506194818 69 180 6.0 11.0 0.00 0.04 0.04 80 1008.5
20260506193819 69 158 6.0 8.0 0.00 0.04 0.04 80 1008.6
20260506192818 69 158 6.0 11.0 0.00 0.04 0.04 80 1008.7
20260506191839 69 180 3.0 5.0 0.00 0.04 0.04 81 1008.9
20260506190818 69 203 6.0 10.0 0.00 0.04 0.04 80 1008.9
20260506185819 69 203 4.0 8.0 0.00 0.04 0.04 81 1008.8
20260506184818 68 180 8.0 11.0 0.00 0.04 0.04 80 1009.0
20260506183818 68 180 7.0 15.0 0.00 0.04 0.04 81 1009.2
20260506182840 68 180 6.0 8.0 0.00 0.04 0.04 81 1009.5
20260506181818 68 180 4.0 7.0 0.00 0.04 0.04 83 1009.5
20260506180820 68 158 9.0 17.0 0.00 0.04 0.04 84 1009.5
20260506175818 68 180 4.0 10.0 0.00 0.04 0.04 84 1009.7
20260506174820 67 135 5.0 9.0 0.00 0.04 0.04 85 1009.9
20260506173819 66 180 5.0 9.0 0.00 0.04 0.04 86 1010.0
20260506172818 66 203 4.0 8.0 0.00 0.04 0.04 87 1009.9
20260506171820 65 180 7.0 13.0 0.01 0.04 0.04 88 1009.8
20260506170838 64 180 3.0 8.0 0.01 0.04 0.04 89 1009.9
20260506165838 64 180 7.0 19.0 0.04 0.04 0.04 89 1010.1
20260506164820 65 203 4.0 9.0 0.04 0.04 0.04 89 1010.1
20260506163818 65 180 5.0 12.0 0.04 0.04 0.04 92 1010.2
20260506162838 64 180 4.0 7.0 0.04 0.04 0.04 91 1010.2
20260506161820 63 180 2.0 6.0 0.03 0.03 0.03 91 1010.6
20260506160820 64 135 3.0 7.0 0.03 0.03 0.03 90 1010.6
20260506155818 64 180 4.0 9.0 0.00 0.00 0.00 89 1010.8
20260506154818 64 203 3.0 5.0 0.00 0.00 0.00 88 1011.0
20260506153818 64 180 2.0 4.0 0.00 0.00 0.00 87 1011.1
20260506152820 65 158 1.0 2.0 0.00 0.00 0.00 86 1011.1
20260506151818 65 180 2.0 4.0 0.00 0.00 0.00 84 1011.3
20260506150818 66 180 2.0 5.0 0.00 0.00 0.00 83 1011.2
20260506145819 66 180 1.0 2.0 0.00 0.00 0.00 80 1011.4
20260506144818 66 158 3.0 4.0 0.00 0.00 0.00 81 1011.3
20260506143820 67 180 2.0 3.0 0.00 0.00 0.00 79 1011.4
20260506142820 67 158 2.0 4.0 0.00 0.00 0.00 78 1011.2
20260506141820 67 180 2.0 3.0 0.00 0.00 0.00 76 1011.2
20260506140840 67 180 3.0 6.0 0.00 0.00 0.00 75 1011.4
20260506135820 67 180 7.0 10.0 0.00 0.00 0.00 74 1011.2
20260506134820 67 180 7.0 11.0 0.00 0.00 0.00 74 1011.1
20260506133819 67 180 4.0 7.0 0.00 0.00 0.00 74 1011.0
20260506132819 68 158 4.0 10.0 0.00 0.00 0.00 74 1011.1
20260506131820 68 158 4.0 9.0 0.00 0.00 0.00 74 1011.1
20260506130820 67 180 4.0 5.0 0.00 0.00 0.00 74 1011.1
20260506125820 67 203 3.0 4.0 0.00 0.00 0.00 73 1011.0
20260506124820 67 180 4.0 8.0 0.00 0.00 0.00 74 1011.0
20260506123840 67 203 4.0 9.0 0.00 0.00 0.00 73 1011.2
20260506122820 67 203 7.0 12.0 0.00 0.00 0.00 73 1011.2
20260506121820 67 180 5.0 8.0 0.00 0.00 0.00 74 1011.5
20260506120820 67 180 6.0 10.0 0.00 0.00 0.00 74 1011.5
20260506115840 66 180 4.0 6.0 0.00 0.00 0.00 75 1011.5
20260506114819 66 180 2.0 5.0 0.00 0.00 0.00 75 1011.4
20260506113820 65 180 4.0 8.0 0.00 0.00 0.00 76 1011.3
20260506112819 65 158 3.0 5.0 0.00 0.00 0.00 76 1011.3
20260506111819 65 158 2.0 5.0 0.00 0.00 0.00 77 1011.2
20260506110820 64 180 4.0 6.0 0.00 0.00 0.00 77 1011.1
20260506105819 64 180 5.0 8.0 0.00 0.00 0.00 77 1011.1
20260506104840 64 180 2.0 5.0 0.00 0.00 0.00 77 1011.0
20260506103820 64 180 3.0 6.0 0.00 0.00 0.00 78 1011.0
20260506102819 64 158 4.0 7.0 0.00 0.00 0.00 78 1011.0
20260506101819 64 180 2.0 6.0 0.00 0.00 0.00 78 1010.9
20260506100820 64 158 2.0 5.0 0.00 0.00 0.00 79 1011.2
20260506095819 64 158 6.0 11.0 0.00 0.00 0.00 79 1011.3
20260506094819 64 180 3.0 7.0 0.00 0.00 0.00 79 1011.3
20260506093820 64 158 2.0 5.0 0.00 0.00 0.00 79 1011.1
20260506092819 64 158 4.0 7.0 0.00 0.00 0.00 79 1011.0
20260506091819 64 180 5.0 9.0 0.00 0.00 0.00 79 1011.0
20260506090819 64 180 3.0 9.0 0.00 0.00 0.00 79 1010.9
20260506085839 65 180 6.0 10.0 0.00 0.00 0.00 79 1010.9
20260506084819 65 180 3.0 6.0 0.00 0.00 0.00 79 1011.0
20260506083819 65 158 3.0 6.0 0.00 0.00 0.00 79 1010.9
20260506082819 65 180 2.0 5.0 0.00 0.00 0.00 79 1011.0
20260506081819 65 180 2.0 4.0 0.00 0.00 0.00 79 1011.0
20260506080819 65 158 5.0 13.0 0.00 0.00 0.00 79 1011.0
20260506072819 66 225 2.0 3.0 0.00 0.00 0.00 79 1011.2
20260506071819 66 180 3.0 4.0 0.00 0.00 0.00 78 1011.3
20260506070839 66 203 4.0 9.0 0.00 0.00 0.00 79 1011.3
20260506061819 67 180 4.0 8.0 0.00 0.00 0.00 77 1011.3
20260506060818 67 158 2.0 4.0 0.00 0.00 0.00 77 1011.3
20260506050838 68 158 3.0 5.0 0.00 0.00 0.00 76 1011.9
20260506044819 68 180 3.0 6.0 0.00 0.00 0.00 76 1011.8
20260506043818 69 158 3.0 6.0 0.00 0.00 0.00 76 1011.9
20260506042819 69 180 5.0 13.0 0.00 0.00 0.00 75 1011.9
20260506041819 69 180 5.0 11.0 0.00 0.00 0.00 75 1011.9
20260506040819 69 158 6.0 9.0 0.00 0.00 0.00 75 1011.8
20260506035820 69 180 6.0 13.0 0.00 0.00 0.00 75 1011.8
20260506034820 69 135 2.0 5.0 0.00 0.00 0.00 75 1011.7
20260506033840 69 180 5.0 10.0 0.00 0.00 0.00 76 1011.7
20260506032820 69 158 4.0 7.0 0.00 0.00 0.00 76 1011.6
20260506031820 69 180 3.0 6.0 0.00 0.00 0.00 76 1011.6
20260506030859 68 180 5.0 9.0 0.00 0.00 0.00 76 1011.7
20260506025820 68 180 2.0 5.0 0.00 0.00 0.00 76 1011.7
20260506024900 68 180 2.0 4.0 0.00 0.00 0.00 76 1011.7
20260506023820 68 180 2.0 3.0 0.00 0.00 0.00 75 1011.9
20260506022820 69 158 1.0 4.0 0.00 0.00 0.00 74 1011.9
20260506021819 69 180 2.0 4.0 0.00 0.00 0.00 72 1011.9
20260506020840 69 180 2.0 5.0 0.00 0.00 0.00 70 1011.8
20260506015819 69 180 2.0 5.0 0.00 0.00 0.00 70 1011.7
20260506014819 69 180 2.0 4.0 0.00 0.00 0.00 70 1011.7
20260506013820 69 180 2.0 4.0 0.00 0.00 0.00 70 1011.6
20260506012819 69 180 2.0 4.0 0.00 0.00 0.00 70 1011.4
20260506011839 69 203 2.0 4.0 0.00 0.00 0.00 70 1011.4
20260506010820 70 180 2.0 4.0 0.00 0.00 0.00 70 1011.3
20260506005820 70 113 2.0 5.0 0.00 0.00 0.00 70 1011.1
20260506004819 70 158 2.0 4.0 0.00 0.00 0.00 69 1011.0
20260506003820 71 180 3.0 5.0 0.00 0.00 0.00 68 1010.8
20260506002819 71 158 2.0 5.0 0.00 0.00 0.00 67 1010.7
20260506001819 72 180 4.0 5.0 0.00 0.00 0.00 66 1010.7
20260506000819 72 180 4.0 7.0 0.00 0.00 0.00 65 1010.5
20260505235820 73 180 6.0 13.0 0.00 0.00 0.00 64 1010.4
20260505234819 73 180 4.0 7.0 0.00 0.00 0.00 64 1010.4
20260505233819 73 203 3.0 7.0 0.00 0.00 0.00 62 1010.3
20260505232819 74 180 3.0 6.0 0.00 0.00 0.00 61 1010.4
20260505231819 74 180 3.0 5.0 0.00 0.00 0.00 61 1010.3
20260505230819 75 180 3.0 7.0 0.00 0.00 0.00 59 1010.3
20260505225819 75 180 2.0 5.0 0.00 0.00 0.00 58 1010.2
20260505224819 76 203 4.0 8.0 0.00 0.00 0.00 57 1010.3
20260505223819 76 180 7.0 17.0 0.00 0.00 0.00 55 1010.2
20260505222819 76 180 4.0 8.0 0.00 0.00 0.00 53 1010.3
20260505221819 77 135 2.0 5.0 0.00 0.00 0.00 52 1010.4
20260505220819 77 180 3.0 5.0 0.00 0.00 0.00 51 1010.1
20260505215839 77 203 3.0 4.0 0.00 0.00 0.00 51 1010.3
20260505214819 78 180 4.0 5.0 0.00 0.00 0.00 50 1010.1
20260505213818 78 180 6.0 14.0 0.00 0.00 0.00 51 1010.1
20260505212819 79 180 4.0 6.0 0.00 0.00 0.00 50 1010.1
20260505211839 79 158 5.0 8.0 0.00 0.00 0.00 49 1010.0
20260505210819 79 180 3.0 6.0 0.00 0.00 0.00 50 1009.9